Starlink 30830

operational
NORAD ID: 58194 Int'l Des: 2023-167 Owner: SPXS Country: US Constellation: starlink
LEOCIRCULAR

About Starlink 30830

Description loading...

Live Position

Loading 3D Globe...

Upcoming Passes

Altitude History

Altitude vs Time

uPlot chart will show altitude changes over time

Two-Line Element Set

1 58194U 23167V 26034.24158234 -.00000089 00000-0 84388-5 0 9994
2 58194 43.0038 333.0717 0000761 280.1142 79.9614 15.02536326125774
Epoch: Feb 3, 2026 • Age: 18 hours

Current Status

Altitude 560.9 km
Velocity 7.59 km/s
Sub-Earth Point 34.40°N, 30.58°W
Launch Date Oct 30, 2023
Age 2.2 years
Type internet

Technical Details

Classification Payload
Mass 730.00 kg
Dry Mass 700.00 kg
Total Mass 730.00 kg
Length 0.30 m
Diameter 4.10 m
Span 29.00 m
Shape Box + pan
Manufacturer SPXS
Bus Type Starlink V2M
Phase Status In Orbit
Owner/State SPXS/US

Large Constellations

Loading constellations...